Regional Weather Roundup
Issued by NWS

Home | Current Version | Previous Version | Text Only | Print | Product List | Glossary Off
Versions: 1 2 3 4 5 6 7 8 9 10 11 12 13 14 15 16 17 18 19 20 21 22 23 24 25 26 27 28 29 30 31 32 33 34 35 36 37 38 39 40 41 42 43 44 45 46 47 48 49 50

000
ASUS43 KFSD 182210
RWRSD

WEATHER ROUNDUP FOR SOUTH DAKOTA
NATIONAL WEATHER SERVICE SIOUX FALLS SD
500 PM CDT THU SEP 18 2014

NOTE: "FAIR" INDICATES FEW OR NO CLOUDS BELOW 12,000 FEET WITH NO
SIGNIFICANT WEATHER AND/OR OBSTRUCTIONS TO VISIBILITY.


SDZ001>005-009-010-012>017-182300-
NORTHWEST AND NORTH CENTRAL SOUTH DAKOTA

CITY           SKY/WX    TMP DP  RH WIND       PRES   REMARKS
BUFFALO          N/A     81  57  43 SE7       29.70F
FAITH            N/A     79  63  57 SE14      29.74F
MOBRIDGE       MOSUNNY   81  60  48 S20       29.73F
$$

SDZ012>016-024>037-041>051-057-063-072>074-182300-
SOUTHWEST AND SOUTH CENTRAL SOUTH DAKOTA

CITY           SKY/WX    TMP DP  RH WIND       PRES   REMARKS
RAPID CTY ARPT SUNNY     91  50  24 SE15      29.74F
PIERRE         SUNNY     85  62  46 S21G29    29.75F
CUSTER         SUNNY     85  37  18 W12       29.93F
ELLSWORTH AFB  MOSUNNY   89  55  31 SE14      29.74F
PHILIP         PTSUNNY   88  61  40 S10       29.73F
PINE RIDGE     SUNNY     90  53  28 S12       29.80F
WINNER         FAIR      83  56  39 S21G32    29.81F
$$

SDZ004>011-016>023-039-040-182300-
NORTHEAST SOUTH DAKOTA

CITY           SKY/WX    TMP DP  RH WIND       PRES   REMARKS
ABERDEEN       SUNNY     78  61  55 S20G28    29.82F
WATERTOWN      MOSUNNY   74  57  55 S17G28    29.90F
SISSETON         N/A     77  59  53 S16G24    29.85F
$$

SDZ017-020-022-023-036>040-048>070-182300-
SOUTHEAST SOUTH DAKOTA

CITY           SKY/WX    TMP DP  RH WIND       PRES   REMARKS
SIOUX FALLS    MOSUNNY   76  54  46 S16       29.93F
HURON          SUNNY     77  60  55 S15G24    29.85F
CHAMBERLAIN    SUNNY     76  61  58 SE16G24   29.83F
MITCHELL       SUNNY     78  58  49 SE21G28   29.88F
YANKTON        SUNNY     73  59  60 SE13G18   29.92F
$$

ABBREVIATIONS USED IN REMARKS
   TC - TEMPERATURE IN CELSIUS
  WCI - WIND CHILL INDEX
   HX - HEAT INDEX
  VSB - VISIBILITY




USA.gov is the U.S. government's official web portal to all federal, state and local government web resources and services.